Back to catalog

COSMOS 839 DEB

AliveUNKNOWN
NORAD 10413·DEBRIS·🇷🇺 Russia

Launched Jul 8, 1976 from Plesetsk Cosmodrome

Loading…

Next Passes (next 24 hours)

TLE

FreshSource: Space-Track

Epoch: Sep 14, 2026, 13:15 UTC

1 10413U 76067G   26257.55237997  .00000000  00000-0  21678-3 0  9991
2 10413  65.8773  93.8291 0683045 259.2062 122.8274 12.30005810250307

Track COSMOS 839 DEB in real time with AllMySat

Download on the App Store